EXPRESS AM-1

导读 | 豆包AI

EXPRESS AM-1(快车AM1),是俄罗斯(CIS即独联体)"快车AM"系列新一代通信卫星,于格林尼治时间2004年10月29日22时11分(北京时间次日08:11),搭乘"质子-K"火箭从哈萨克斯坦拜科努尔发射场发射,星箭分离后成功入轨。它由俄NPO-PM为主承包商、法国阿尔卡特提供载荷,定点于40°E轨位服役,服务卫星通信广播业务,设计寿命12年。

Basic Information
目录编号:
28463
目录名称:
EXPRESS AM-1
国际标识:
2004-043A
轨道中心:
EARTH
卫星名称:
EXPRESS AM-1
卫星全名:
--
卫星状态:
在轨 (已飞行7854 天)
发射日期:
2004-10-29 UTC
国别 :
俄罗斯(独联体) (CIS)
星等 :
--
Orbit Information
数据来源 国际轨道数据 AOE轨道数据
星历时间 2026-05-01T06:09:28+0800
13小时前
查看轨道信息
2026-05-01T06:00:00+0800
14小时前
查看轨道信息
半长轴 42469.836km 42469.921km
偏心率 0.0010151 0.0010137
轨道倾角 11.372° 11.372°
近地点辐角 255.774° 255.378°
升交点赤经 40.361° 40.361°
平近点角 298.882° 296.929°
近地点 36048.587km 36048.732km
远地点 36134.811km 36134.836km
周期 1451.712分钟 1451.717分钟
每日圈数 0.991932 0.991929
Detailed Information
使用方式:
暂无
2D Orbit Map
3D Orbit Map
Orbit Altitude Analysis Chart
Orbit Inclination Analysis Chart
Orbit Comprehensive Analysis Chart
View Comprehensive Chart